Location: Asheville, NC
(35.6000°N, 82.5500°W)
Time: 09:37:18

YUBILEINY - Pass Details

Date: 09 March 2018
Orbit: 1478 x 1509 km, 82.5° (Epoch: 20 March)

Event Time Altitude Azimuth Distance (km) Brightness Sun altitude
Rises 05:09:52 0° 357° (N) 4,608 ? -21.0°
Reaches altitude 10° 05:12:52 10° 2° (N) 3,628 ? -20.4°
Maximum altitude 05:21:22 54° 79° (E) 1,761 ? -18.7°
Drops below altitude 10° 05:29:50 10° 155° (SSE) 3,634 ? -17.0°
Sets 05:32:49 0° 160° (SSE) 4,615 ? -16.4°
